Flag for Argentina Weather past 2 weeks in Zárate, Buenos Aires, Argentina

Now
72 °F

Clear.


Feels Like: 71 °F
Forecast: 64 / 89 °F
Wind: 18 mph from Northeast

Location: Buenos Aires Airport

Current Time: Feb 1, 2015 at 6:02:18 AM

Latest Report: Feb 1, 2015 at 5:00 AM


Visibility: 10 mi

Pressure: 29.98 "Hg

Humidity: 83%

Dew point: 66 °F

Location of ZárateLocation

Historic Weather in Zárate — Graph

°F

Zárate temperature yesterday

Maximum temperature yesterday: 79 °F (at 2:00 PM)
Minimum temperature yesterday: 68 °F (at 5:00 AM)
Average temperature yesterday: 74 °F

Past Weeks' High & Low Weather Summary

 TemperatureHumidityPressure
High91 °F (Jan 27, 2:00 PM)100% (Jan 27, 4:00 AM)30.21 "Hg (Jan 27, 4:00 AM)
Low61 °F (Jan 20, 6:00 AM)40% (Jan 25, 12:00 PM)29.65 "Hg (Jan 27, 5:00 PM)
Average74 °F70%29.96 "Hg
* Reported Jan 17 5:00 AM — Feb 1 5:00 AM, Zárate, Weather by CustomWeather, © 2014

Note: Actual official high and low records may vary slightly from our data, if they occured in-between our weather recording intervals... More about our weather records

Advertising

Zárate weather history for previous 24 hours

 ConditionsComfort  
Time TempWeatherWind HumidityBarometerVisibility
5:00 AM
Feb 1
72 °FClear.18 mph83%29.98 "Hg10 mi
4:00 AM73 °FClear.21 mph74%29.98 "Hg10 mi
3:00 AM73 °FClear.17 mph74%29.98 "Hg10 mi
2:00 AM75 °FClear.9 mph61%29.98 "Hg10 mi
1:00 AM77 °FPassing clouds.9 mph57%29.98 "HgN/A
12:00 AM77 °FClear.9 mph57%29.98 "Hg10 mi
11:00 PM
Jan 31
77 °FClear.8 mph57%29.98 "Hg10 mi
10:00 PM75 °FClear.12 mph74%29.98 "Hg10 mi
9:00 PM75 °FClear.16 mph74%29.98 "Hg10 mi
8:00 PM75 °FPassing clouds.16 mph74%29.95 "HgN/A
7:00 PM77 °FPassing clouds.13 mph65%29.98 "HgN/A
6:00 PM79 °FPassing clouds.13 mph58%29.98 "HgN/A
5:00 PM79 °FPassing clouds.12 mph58%29.98 "HgN/A
4:00 PM79 °FPassing clouds.9 mph54%30.01 "HgN/A
3:00 PM79 °FPassing clouds.7 mph54%30.04 "HgN/A
2:00 PM79 °FPassing clouds.7 mph58%30.07 "HgN/A
1:00 PM77 °FPassing clouds.8 mph61%30.07 "HgN/A
12:00 PM75 °FPassing clouds.9 mph65%30.09 "HgN/A
11:00 AM75 °FPassing clouds.9 mph69%30.09 "HgN/A
10:00 AM72 °FPassing clouds.14 mph73%30.09 "HgN/A
9:00 AM72 °FPassing clouds.17 mph73%30.09 "HgN/A
8:00 AM70 °FPassing clouds.20 mph78%30.09 "HgN/A
7:00 AM68 °FSunny.18 mph83%30.09 "Hg10 mi
6:00 AM70 °FSunny.17 mph73%30.07 "Hg10 mi
Weather by CustomWeather, © 2014

See weather overviewHow to use our weather pages